Flag for Burkina Faso Weather past 2 weeks in Koudougou, Burkina Faso

Now
81 °F

Clear.


Feels Like: 79 °F
Forecast: N/A
Wind: 3 mph from North

Location: Ouagadougou Airport

Current Time: Dec 17, 2014 at 9:41:08 PM

Latest Report: Dec 17, 2014 at 9:00 PM


Visibility: 4 mi

Pressure: 29.98 "Hg

Humidity: 23%

Dew point: 39 °F

Location of KoudougouLocation

Historic Weather in Koudougou — Graph

°F

Koudougou temperature yesterday

Maximum temperature yesterday: 93 °F (at 1:00 PM)
Minimum temperature yesterday: 66 °F (at 6:00 AM)
Average temperature yesterday: 80 °F

Past Weeks' High & Low Weather Summary

 TemperatureHumidityPressure
High99 °F (Dec 3, 2:00 PM)56% (Dec 7, 6:00 AM)30.04 "Hg (Dec 7, 6:00 AM)
Low61 °F (Dec 12, 7:00 AM)9% (Dec 5, 4:00 PM)29.80 "Hg (Dec 3, 3:00 PM)
Average80 °F23%29.93 "Hg
* Reported Dec 2 8:00 PM — Dec 17 8:00 PM, Koudougou, Weather by CustomWeather, © 2014

Note: Actual official high and low records may vary slightly from our data, if they occured in-between our weather recording intervals... More about our weather records

Advertising

Koudougou weather history for previous 24 hours

 ConditionsComfort  
Time TempWeatherWind HumidityBarometerVisibility
8:00 PM
Dec 17
82 °FClear.3 mph23%29.98 "Hg4 mi
7:00 PM81 °FHaze.2 mph26%29.95 "Hg2 mi
6:00 PM86 °FHaze.3 mph22%29.89 "Hg2 mi
5:00 PM90 °FClear.5 mph16%29.89 "Hg4 mi
4:00 PM93 °FClear.6 mph14%29.89 "Hg5 mi
3:00 PM95 °FClear.3 mph12%29.89 "Hg5 mi
2:00 PM93 °FClear.7 mph13%29.89 "Hg5 mi
1:00 PM91 °FClear.7 mph14%29.92 "Hg5 mi
12:00 PM90 °FClear.8 mph15%29.95 "Hg5 mi
11:00 AM88 °FClear.10 mph16%29.98 "Hg5 mi
10:00 AM84 °FClear.12 mph16%29.98 "Hg5 mi
9:00 AM79 °FHaze.13 mph18%30.01 "Hg3 mi
8:00 AM73 °FHaze.8 mph22%29.98 "Hg3 mi
7:00 AM70 °FClear.5 mph29%29.98 "Hg4 mi
6:00 AM70 °FClear.6 mph27%29.95 "Hg10 mi
5:00 AM72 °FClear.7 mph25%29.95 "Hg10 mi
4:00 AM70 °FClear.5 mph29%29.95 "Hg10 mi
3:00 AM72 °FClear.3 mph27%29.95 "Hg10 mi
2:00 AM72 °FClear.No wind29%29.95 "Hg10 mi
1:00 AM72 °FClear.No wind29%29.95 "Hg10 mi
12:00 AM73 °FClear.No wind29%29.95 "Hg10 mi
11:00 PM
Dec 16
75 °FClear.No wind27%29.98 "Hg10 mi
9:00 PM77 °FClear.No wind24%29.98 "Hg4 mi
Weather by CustomWeather, © 2014

See weather overviewHow to use our weather pages